Weather in Villavicencio

Colombia     4°08′33″N   73°38′04″W
temp.,
°C
wind,
m/s
gust,
m/s
humid.,
%
clouds,
%
prec.,
mm/h
press.,
hPa
HPBL,
m
25 february, thu
thu2501:00+16nw229063 1.4 101344
04:00+15nw229060 0.9 101235
07:00+16nw128764 1.1 101434
10:00+16sw119296 0.6 1016134
13:00+21se227290 1.2 1011653
16:00+21se227385 0.8 1008725
19:00+17nw019292 1.3 101037
22:00+16nnw119198 0.4 101326
26 february, fri
fri2601:00+16nnw119399 2.2 101226
04:00+15nw129298 0.3 101030
07:00+15nw229099 0.3 101281
10:00+22sse1264100 0.2 1012958
13:00+21ese227295 0.7 1008743
16:00+20se128093 0.9 1006581
19:00+17wnw119095 1.6 100849
22:00+17nw019294 1.1 101136
27 february, sat
sat2701:00+16n019396 1.7 101148
04:00+16nw119289 0.3 101073
07:00+16nw129093 0.3 101279
10:00+18se118695 0.3 1013400
13:00+20se237797 0.9 1009692
16:00+19ese128396 0.6 1006441
19:00+16wnw119282 0.9 100860
22:00+16w119399 0.8 101151
28 february, sun
sun2801:00+16w119499 1.6 101181
04:00+15wnw2290100 0.5 101083
07:00+16nw128699 0.6 101294
10:00+16s1185100 0.1 1012340
13:00+20se337294 0.3 1009767
16:00+17se118396 0.3 1006430
19:00+16nw118891 0.3 100832
22:00+15nw128883 0.0 101047
1 march, mon
mon101:00+16nw118590 0.1 100942
04:00+15nw1184100 0.3 100885
07:00+15nw2281100 0.4 101194
10:00+19se1166100 0.0 1012825
13:00+21se3363100 0.2 1008942
16:00+18ese1276100 0.2 1006616
19:00+17nw1284100 0.3 100857
22:00+16wnw128397 1.1 101162